Find Starlink 31581

NORAD ID: 59474 Int'l Des: 2024-068 Owner: SPXS Country: US Constellation: starlink operational
LEOCIRCULAR

实时位置

正在加载3D地球...

关于 Starlink 31581

正在加载描述...

即将过境

Passes for default location (London). Set your location on the main map for personalized predictions.

高度历史

Loading altitude history...

两行轨道根数

1 59474U 24068V 26124.26038626 .00001384 00000-0 59820-4 0 9991
2 59474 43.0035 73.5655 0001470 274.5598 85.5086 15.27576484117100
Epoch: May 4, 2026 • Age: 26 hours

当前状态

高度 489.6 km
速度 7.62 km/s
星下点 -27.36°S, 67.19°W
发射日期 Apr 10, 2024
运行时间 2 years
类型 internet

技术详情

分类 Payload
质量 730.00 kg
干质量 700.00 kg
总质量 730.00 kg
长度 0.30 m
直径 4.10 m
跨度 29.00 m
形状 Box + pan
制造商 SPXS
平台类型 Starlink V2M
阶段状态 In Orbit
所有者/国家 SPXS/US

Most Searched